GFSNGP_sfc_30mbdewp_000.txt.gz
Dewpoint
32 32 33 33 33 33 32 30 28 28 27 29 33 34 35 36 37 37 38 38 38 38 39 39 39 39 36 35 35 34 28 26 29 31 31 29 27 29 32 28 27 27 26 24
33 34 34 33 33 33 31 30 29 28 27 36 38 38 38 37 37 38 38 38 37 39 40 39 38 38 36 36 36 37 36 37 36 34 34 34 36 34 32 29 26 22 20 20
27 33 33 29 30 29 28 28 27 27 29 37 38 38 38 38 38 38 38 37 37 39 40 38 37 36 36 37 39 37 38 38 38 38 37 35 34 33 28 22 20 18 17 18
30 31 25 27 30 30 28 29 30 35 36 38 38 39 39 39 38 39 38 37 38 39 38 37 36 36 37 38 39 38 37 37 36 36 34 30 25 22 18 17 16 16 18 21
29 28 28 28 28 28 28 30 35 36 37 38 39 39 37 37 39 39 38 39 39 37 36 36 35 36 37 33 35 30 23 23 23 23 20 19 17 16 16 16 16 16 20 23
28 26 22 23 27 33 35 29 36 37 37 38 39 35 35 39 39 35 38 37 35 34 34 35 34 29 23 20 20 21 22 21 21 21 19 17 17 16 16 15 17 22 23 22
26 26 27 28 30 35 26 24 35 37 37 39 39 38 40 40 35 37 35 34 34 34 34 35 32 26 17 18 19 20 20 21 20 21 20 19 16 15 16 18 20 20 19 19
29 27 24 33 33 31 32 35 35 36 38 40 39 39 36 34 35 34 33 33 33 34 34 33 21 16 17 20 21 21 21 21 22 22 21 17 16 16 18 20 18 17 18 18
27 26 31 33 34 35 37 35 36 39 41 40 37 36 36 32 33 33 33 32 33 34 31 28 18 19 20 21 22 22 22 22 23 23 20 17 17 18 18 18 18 18 19 19
31 31 32 34 35 35 36 38 42 42 41 39 36 36 32 33 32 32 32 31 33 33 29 29 22 20 21 22 22 22 22 22 24 22 20 19 20 18 18 17 18 20 19 20
34 35 35 35 35 37 40 41 38 38 37 37 32 30 32 31 30 31 31 32 34 35 34 28 21 21 22 23 23 22 22 23 23 22 19 20 20 19 19 20 21 19 19 22
33 35 35 36 39 37 37 37 37 35 33 29 28 32 32 30 29 28 31 35 32 32 24 21 22 21 22 24 23 23 22 22 21 22 21 19 19 20 21 22 20 19 20 22
37 39 38 40 40 39 35 37 35 33 28 27 33 33 32 31 30 32 33 30 30 25 21 22 22 20 21 24 24 24 23 23 23 22 21 18 19 19 17 18 18 20 19 19
38 39 39 38 36 35 31 28 27 27 30 32 32 31 32 31 31 30 30 28 23 21 19 23 21 19 23 24 25 24 23 22 22 21 18 18 18 17 16 16 15 16 19 18
39 38 37 36 31 26 27 28 29 29 31 32 33 33 31 30 28 24 23 24 22 20 21 23 23 22 27 27 25 25 24 19 18 20 19 18 17 15 17 15 15 16 16 16
33 33 32 29 27 29 28 28 30 30 31 32 32 31 31 26 23 23 26 27 25 23 24 24 24 25 28 27 25 24 22 21 21 20 21 21 18 17 18 15 15 16 15 16
30 30 31 26 24 25 28 30 30 29 30 32 32 30 25 23 22 21 23 26 25 25 26 26 27 27 27 27 25 22 21 22 20 20 22 20 17 17 17 15 15 16 15 16
28 25 24 23 23 26 28 30 30 30 31 31 29 27 23 21 19 24 25 24 25 26 27 27 26 26 25 26 24 22 21 23 22 20 21 18 18 16 16 15 15 15 15 15
25 25 26 25 25 28 30 31 31 30 30 31 29 26 23 24 26 27 25 25 25 25 26 27 25 25 27 27 26 21 24 22 21 21 19 17 17 16 16 16 14 15 14 13
28 29 28 27 28 29 31 31 30 30 31 30 28 27 23 24 27 26 26 24 24 26 25 23 24 24 28 27 27 23 23 22 22 21 18 17 16 17 15 17 15 14 14 13
29 29 29 28 28 28 32 31 30 31 31 28 28 27 22 23 26 27 24 23 24 23 23 24 23 24 28 26 26 25 24 24 22 20 19 15 15 15 14 16 15 13 13 13
28 29 29 28 27 28 30 32 31 31 31 29 28 26 25 26 25 25 25 24 24 24 23 23 25 27 26 25 24 25 25 24 22 20 19 17 15 14 13 15 14 14 13 13
28 29 28 27 26 27 31 32 31 31 31 29 27 27 27 27 26 25 23 25 24 24 25 24 27 25 24 24 24 25 25 24 23 21 20 18 15 13 14 14 13 12 13 13
27 27 26 26 27 29 30 31 29 30 31 29 29 29 28 26 25 27 26 23 25 25 26 25 27 25 23 23 23 25 25 24 23 22 21 19 15 14 13 14 14 12 13 11
27 26 26 26 27 27 29 29 30 30 29 29 29 29 29 28 25 23 23 24 27 26 23 25 28 26 25 23 23 24 25 23 22 21 20 19 18 14 14 14 12 11 12 10
27 27 27 28 28 29 30 30 30 30 29 28 29 30 30 26 24 23 23 26 23 23 24 25 27 28 27 26 24 25 25 23 22 20 18 18 18 14 15 11 10 12 11 9
28 27 28 28 29 30 31 31 30 29 30 29 29 30 28 27 24 23 22 22 23 23 23 24 25 26 27 27 26 25 24 25 23 20 20 19 18 17 14 12 12 11 9 8

GFSNGP_sfc_30mbdewp_006.txt.gz
Dewpoint
31 31 31 32 32 32 32 32 29 28 29 30 32 31 36 37 38 38 38 38 38 39 37 37 38 39 38 36 36 37 37 36 35 36 36 36 36 36 36 35 35 36 35 29
30 33 33 31 32 33 33 33 33 32 32 32 31 37 37 37 37 38 38 38 38 35 36 37 37 36 35 35 36 37 37 37 37 38 37 36 36 36 35 35 35 37 32 21
21 30 30 20 23 29 29 30 28 25 26 29 34 36 35 36 38 39 38 34 32 31 31 35 36 35 34 35 36 36 33 28 28 29 30 31 33 34 32 26 22 19 19 22
29 30 23 23 29 28 28 27 27 29 29 33 36 36 36 38 39 37 35 34 32 32 34 35 34 34 33 31 29 27 27 29 29 28 23 22 21 19 19 18 17 18 21 24
28 27 27 29 26 25 26 26 29 31 34 36 35 36 35 38 38 37 36 34 33 35 34 33 33 28 24 24 24 26 30 30 28 23 22 21 20 18 17 17 18 22 23 20
28 25 23 24 26 30 34 27 34 35 35 34 35 33 35 38 37 35 31 34 35 34 33 32 34 31 26 28 26 23 25 22 22 22 22 21 18 17 18 19 21 19 18 19
29 27 28 29 30 32 27 27 34 35 36 36 35 37 36 35 32 27 32 34 34 33 31 33 34 26 25 21 20 23 22 22 22 22 22 19 18 19 19 19 18 17 17 19
27 25 22 30 32 32 32 36 36 37 37 39 37 36 33 31 29 29 32 33 31 31 31 33 32 23 22 26 21 22 22 21 21 23 21 19 19 18 18 18 17 17 18 18
30 29 30 32 36 35 35 37 37 39 38 37 34 33 30 30 30 29 33 33 31 30 31 33 32 28 32 30 25 21 22 21 21 22 21 19 19 18 18 19 18 18 20 18
33 33 36 38 37 39 41 40 38 38 37 36 31 32 31 31 29 29 32 31 30 30 32 32 30 32 28 21 22 22 21 21 22 21 21 19 19 18 19 19 19 19 18 17
35 37 37 37 40 40 39 39 38 37 34 31 31 32 31 30 31 32 32 30 30 31 33 30 30 28 24 21 22 21 22 22 23 22 22 21 21 18 20 21 20 19 17 18
32 35 39 40 40 40 38 36 35 33 31 33 32 29 30 30 31 31 31 31 30 33 31 30 28 21 22 21 22 22 22 23 23 22 21 22 19 19 20 19 19 17 17 17
37 40 40 41 40 37 34 31 30 31 28 28 29 30 30 30 31 31 31 29 28 26 24 21 22 22 22 23 23 23 22 23 21 20 20 20 20 18 17 15 17 16 17 16
38 39 39 35 34 33 31 28 26 25 26 29 30 29 30 31 30 30 29 26 24 24 23 22 22 22 25 25 26 23 22 20 19 20 19 19 17 18 15 15 14 12 14 15
37 38 38 35 31 26 22 22 21 22 25 28 29 29 30 29 28 29 27 24 25 25 24 25 25 26 26 27 25 25 25 23 17 19 18 18 17 15 14 15 14 12 13 12
36 34 30 23 25 24 23 23 21 21 26 29 29 29 29 29 28 28 25 24 24 22 25 25 24 26 26 26 27 26 23 21 19 19 19 19 17 15 15 15 14 13 12 12
30 23 23 24 23 23 23 23 23 25 28 29 29 29 28 28 27 26 25 23 23 23 25 25 24 24 24 25 25 23 22 21 22 20 19 18 16 16 15 14 14 13 12 12
25 25 24 25 26 27 26 24 24 25 26 29 29 27 28 27 27 27 22 24 23 25 26 26 25 22 21 26 26 25 22 22 21 19 19 17 16 15 14 14 14 12 12 11
23 22 24 26 27 28 28 28 27 27 26 29 28 27 27 28 27 25 25 25 24 23 24 23 22 21 22 25 25 25 22 22 19 20 18 16 16 13 14 13 13 12 11 11
22 23 24 25 26 26 25 26 26 26 26 28 30 29 28 28 28 25 25 25 24 24 23 22 22 23 25 25 24 23 22 22 21 20 17 16 15 13 12 12 13 12 11 11
23 25 25 25 25 25 25 25 25 24 25 26 30 29 29 29 26 25 24 25 25 24 23 23 23 24 24 24 23 23 23 23 22 20 19 18 16 14 12 11 12 12 11 11
25 25 25 25 25 25 26 26 25 25 25 27 30 29 30 27 26 26 25 26 26 24 23 23 23 25 26 24 23 23 24 24 23 21 19 17 16 15 13 10 11 12 11 11
26 26 26 26 26 27 26 25 25 25 25 26 28 29 29 27 26 26 25 25 25 25 24 24 25 26 27 23 22 23 23 23 23 22 19 17 17 15 14 13 12 12 11 11
26 26 26 27 26 25 26 27 27 27 26 26 26 29 29 27 26 26 26 26 25 23 22 24 26 25 26 24 23 23 23 23 23 21 19 18 16 15 14 13 12 11 10 10
26 26 26 27 27 27 27 28 28 28 28 28 29 28 28 28 27 25 24 22 22 24 25 24 25 25 25 24 24 23 23 23 24 22 19 18 18 16 15 13 12 12 10 9
26 27 28 28 28 27 27 27 28 29 30 29 29 27 27 28 28 24 23 22 22 23 24 25 25 25 24 24 23 23 22 22 22 22 21 19 18 17 17 15 13 12 10 9
27 26 26 26 27 27 28 29 30 30 31 30 29 26 27 28 28 26 24 23 22 22 23 24 24 24 25 23 21 20 21 21 21 20 20 20 18 17 18 16 15 14 10 9

GFSNGP_sfc_30mbdewp_009.txt.gz
Dewpoint
30 31 31 30 31 31 31 31 29 28 28 29 31 33 33 37 37 37 37 39 38 34 32 33 35 37 36 35 36 38 37 37 37 37 37 37 33 32 33 32 32 34 34 32
30 32 32 30 31 32 32 32 32 32 31 33 34 35 37 36 36 36 39 36 34 33 32 32 36 35 34 34 36 38 37 31 29 29 29 29 30 30 31 28 24 22 21 21
20 30 30 22 22 28 29 30 28 26 26 31 33 36 35 35 37 38 34 34 31 27 31 34 35 34 33 34 34 34 29 28 28 30 26 23 22 21 20 20 20 19 20 23
29 29 19 21 28 28 28 29 29 28 31 33 35 36 36 38 36 36 35 31 27 28 34 36 34 32 32 31 30 29 28 30 30 26 22 22 21 20 19 19 19 19 22 21
27 26 27 28 27 26 26 26 30 34 36 36 37 37 36 37 37 35 33 32 30 33 36 34 31 34 27 26 26 27 28 27 23 23 22 21 20 19 19 19 19 20 18 18
29 26 23 25 27 31 33 27 35 35 36 37 37 34 36 36 36 33 31 29 30 35 34 31 31 34 32 29 29 26 25 23 22 22 21 20 20 19 19 19 18 18 17 18
28 27 28 30 31 31 28 31 37 36 36 37 36 36 37 37 35 32 31 29 32 35 31 30 33 34 30 25 24 26 23 22 21 21 21 21 19 19 18 17 20 21 21 21
27 26 23 30 31 30 35 39 37 37 39 37 37 36 33 33 33 30 30 30 32 33 30 31 33 32 26 27 30 32 23 22 21 21 21 19 19 18 17 18 20 20 20 19
30 29 30 31 33 38 39 39 39 39 38 37 35 32 30 32 31 31 30 30 32 31 30 31 33 31 28 31 33 27 23 22 21 22 21 20 18 19 18 19 20 18 17 16
34 35 34 36 39 41 41 39 39 38 37 35 32 31 32 31 31 29 30 30 31 31 30 31 33 31 31 30 26 22 22 22 22 22 22 22 21 21 19 20 19 18 17 16
35 36 36 37 40 41 39 39 37 36 35 34 33 31 30 30 29 30 31 31 31 31 31 32 32 31 26 23 23 22 22 22 23 24 23 22 22 20 20 21 19 18 16 15
33 36 38 39 40 41 38 35 33 33 31 29 30 29 30 29 29 31 30 30 29 28 28 26 25 23 23 23 23 23 22 23 24 23 22 20 19 19 20 20 20 17 17 16
37 40 39 40 39 36 33 31 27 25 23 24 25 30 29 29 30 31 29 28 27 25 24 24 23 22 24 26 26 25 24 24 23 22 21 20 20 19 18 18 18 16 16 15
38 39 36 35 33 31 25 22 23 23 22 24 27 29 29 29 30 29 27 27 27 25 26 24 24 25 27 27 26 24 24 23 23 22 21 21 21 19 18 17 16 15 15 14
37 38 36 29 24 24 24 24 23 22 21 22 26 29 29 29 29 29 28 28 26 25 24 25 24 25 26 25 26 26 25 23 23 22 22 21 20 19 18 17 16 15 14 12
30 24 24 24 23 24 25 25 24 21 21 24 27 28 29 30 29 30 29 27 24 24 25 26 25 24 25 23 24 24 24 22 21 22 21 20 20 18 17 17 15 15 13 13
24 23 23 23 24 25 26 27 27 25 26 27 27 27 28 28 28 27 28 26 24 24 25 26 25 23 24 23 23 24 24 23 22 21 21 21 19 18 17 17 16 15 14 14
24 24 24 24 25 26 27 28 28 27 27 27 27 27 27 27 27 27 28 26 24 25 26 26 25 23 22 25 25 25 24 23 23 21 21 20 19 18 17 16 15 15 14 13
21 22 23 24 25 26 26 26 26 26 26 26 25 26 28 29 28 28 27 25 25 24 25 24 23 22 23 25 25 24 24 24 23 22 20 19 20 18 17 16 15 15 14 13
23 24 25 25 25 25 25 26 26 26 26 26 25 25 28 29 29 29 27 25 26 26 25 23 23 23 25 25 24 23 24 24 23 23 21 20 20 19 17 14 14 15 15 14
23 25 25 25 25 25 25 25 25 26 26 26 24 25 28 30 31 28 25 25 26 26 25 23 23 24 26 25 24 24 24 24 24 23 22 21 19 19 18 16 15 16 15 14
25 25 25 25 25 25 26 27 27 26 25 25 25 26 29 29 30 27 26 26 27 26 24 24 23 24 26 26 23 24 24 24 24 24 22 21 20 19 19 18 16 16 16 15
25 25 26 25 25 27 27 26 26 26 26 26 27 27 27 29 30 27 25 27 26 26 26 26 25 26 26 27 25 24 24 24 24 23 23 21 21 20 19 18 17 16 16 15
25 26 26 26 26 26 26 27 27 27 27 28 28 28 28 28 28 27 27 27 26 26 25 25 26 25 25 27 26 26 25 24 24 24 23 19 20 19 18 18 16 17 15 13
26 26 26 26 27 27 28 27 27 27 28 29 30 30 30 29 28 28 27 27 24 24 25 25 25 25 26 26 25 24 24 24 24 25 24 22 21 20 20 19 17 17 16 14
26 27 27 26 26 27 28 28 27 28 28 28 31 31 29 28 28 28 26 24 23 23 25 26 26 26 26 25 24 23 23 24 23 23 22 23 22 21 20 20 19 17 17 15
26 26 26 26 26 26 27 28 29 28 28 29 30 31 28 28 29 29 27 25 26 24 25 25 26 26 26 25 24 23 22 23 21 21 22 21 21 21 21 21 20 19 18 15

GFSNGP_sfc_30mbdewp_015.txt.gz
Dewpoint
24 21 19 20 21 21 19 19 20 23 23 24 27 28 30 32 33 33 34 35 36 35 32 27 24 26 29 30 27 27 27 27 26 27 27 28 27 24 22 19 17 16 17 17
26 24 21 21 21 20 20 22 23 23 23 28 29 30 32 33 34 34 36 36 36 29 26 23 24 26 29 27 27 26 26 25 25 26 28 28 24 21 16 15 16 18 18 18
27 30 29 26 27 21 22 23 25 25 26 28 29 33 34 35 36 36 37 37 33 26 25 25 24 26 27 25 26 24 24 23 24 28 28 25 22 16 15 16 17 18 17 18
32 30 24 25 25 25 24 25 25 25 27 31 34 35 36 37 37 37 36 34 30 27 24 22 22 24 27 25 25 24 23 25 27 27 26 22 20 15 16 16 17 17 17 18
30 25 23 25 28 28 26 27 27 32 34 34 35 36 35 38 38 37 35 31 26 23 21 21 21 23 24 24 23 22 22 20 23 26 26 21 18 16 17 17 17 16 18 21
32 27 22 28 29 31 31 26 35 36 35 36 37 34 35 37 36 34 29 23 22 21 21 20 20 21 22 21 20 22 23 20 22 23 23 22 18 18 18 17 16 19 22 22
30 28 27 27 31 32 27 31 36 39 37 38 35 37 37 37 32 26 22 19 20 20 20 20 21 21 19 18 18 21 23 23 27 31 27 21 18 18 17 17 20 26 27 25
31 28 25 31 30 33 34 38 38 40 38 37 36 34 32 27 22 20 20 19 18 18 18 20 19 18 18 17 22 28 30 31 33 32 26 21 19 18 18 18 21 23 25 24
30 28 28 32 33 37 38 39 40 39 39 37 32 28 25 21 20 19 19 16 16 16 19 18 18 17 17 20 25 29 32 33 32 26 25 20 20 18 18 19 21 23 19 19
32 30 30 32 36 40 41 41 40 39 37 28 27 24 20 19 18 16 13 13 14 17 17 17 18 18 20 25 26 25 27 26 25 22 22 21 18 17 17 20 21 19 17 15
34 33 32 35 39 39 40 40 39 34 29 28 23 20 19 16 14 14 15 15 17 18 18 18 20 22 24 26 26 25 24 22 21 21 21 21 20 19 19 21 20 17 15 15
34 35 38 39 41 40 39 39 31 29 25 23 22 18 15 14 15 16 17 18 18 17 19 21 24 25 25 26 27 26 24 22 23 24 24 24 20 19 22 21 19 18 17 17
36 40 40 41 40 39 33 30 27 25 24 21 16 15 15 17 18 20 19 18 19 21 23 26 26 24 26 27 27 26 25 24 23 23 24 22 22 22 20 21 23 20 18 16
39 40 38 39 36 32 28 27 25 21 16 15 16 18 17 17 19 18 19 22 24 26 27 26 25 25 28 26 24 24 24 23 26 25 24 24 23 22 21 21 20 18 22 15
38 40 40 37 30 27 24 19 15 14 15 17 16 17 19 20 21 22 23 26 29 30 28 26 26 27 26 25 23 21 21 23 25 26 26 24 24 23 22 21 19 17 17 14
34 31 29 25 22 16 14 14 16 16 16 17 20 23 24 25 26 27 28 29 29 28 29 29 28 28 26 24 22 20 20 23 23 24 25 24 22 22 21 20 18 16 17 16
30 26 21 16 14 15 17 18 18 19 23 22 24 28 29 29 30 29 30 31 31 30 31 29 29 28 25 24 21 20 21 24 24 22 25 22 21 23 21 21 19 17 17 19
19 16 15 16 17 18 20 21 23 24 25 27 30 31 31 30 30 30 30 31 32 31 31 28 29 26 24 22 22 21 21 25 26 25 23 24 23 21 22 21 21 19 18 18
15 16 17 18 21 23 24 23 24 28 30 31 31 30 30 30 30 30 30 31 31 30 30 30 29 24 23 22 23 21 23 24 25 25 25 24 24 24 24 23 21 20 19 17
15 16 19 22 24 27 27 29 30 29 29 30 30 30 29 29 30 30 31 30 31 32 33 29 26 25 25 22 25 21 23 24 24 24 26 24 24 24 24 23 22 21 21 20
19 21 24 29 29 30 30 30 30 29 30 32 30 29 29 29 29 30 31 28 29 34 31 29 27 26 22 22 24 24 26 25 25 25 26 25 24 23 24 24 24 22 22 21
22 23 28 29 30 30 31 32 32 32 32 31 31 29 28 28 29 30 32 31 31 32 31 29 28 27 24 23 21 26 25 24 25 26 25 26 25 23 23 23 23 23 22 21
21 23 27 29 30 30 31 31 31 31 31 31 29 29 30 30 30 29 29 32 32 33 31 30 30 27 25 28 28 28 27 26 24 25 25 25 25 24 24 23 23 23 22 21
24 25 27 29 31 31 30 28 28 29 29 30 32 31 30 30 30 32 33 31 31 30 31 32 31 27 26 29 29 28 28 27 27 27 26 26 27 24 24 24 23 22 22 22
27 29 29 31 30 28 25 25 27 27 28 28 30 31 31 31 30 32 32 32 31 31 31 31 29 27 29 29 29 28 27 26 26 26 25 25 26 26 26 24 24 23 23 22
25 26 25 25 27 27 28 28 27 28 28 29 30 31 33 33 33 32 32 32 32 31 31 31 31 30 29 29 28 28 26 25 25 25 25 24 24 25 25 25 25 24 24 24
25 26 27 28 28 27 28 28 29 29 29 30 30 32 31 32 32 31 32 32 32 32 31 31 31 30 29 29 28 27 26 26 25 24 22 22 23 23 23 23 24 25 25 25